    Orbital elements:
    2019 TQ                                                  Earth MOID = 0.0196 AU
    Epoch 2019 Apr. 27.0 TT = JDT 2458600.5                 Veres
    M 273.77107              (2000.0)            P               Q
    n   0.43264778     Peri.   53.59769     +0.49698553     -0.86390243
    a   1.7313295      Node     8.00095     +0.47978633     +0.19509486
    e   0.4877682      Incl.   35.95184     +0.72305633     +0.46433887
    P   2.28           H   24.6           G   0.15           U   6
    Residuals in seconds of arc
    191002 G96  0.2-  0.8-    191002 J69  0.2-  0.2+    191002 L01  0.3-  0.1+
    191002 G96  0.6+  0.3+    191002 J69  0.1-  0.2+    191002 L01  0.1+  0.3-
    191002 G96  0.7-  0.2+    191002 J69  0.3-  0.0     191003 W34  0.2-  0.1+
    191002 G96  0.1-  0.1-    191002 J69  0.3-  0.4-    191003 W34  0.4-  0.4+
    191002 G96  0.1+  0.1-    191002 J69  0.0   0.1-    191003 H21  0.4+  0.1-
    191002 G96  0.5+  0.4+    191002 104  0.3+  0.2-    191003 H21  0.4+  0.2-
    191002 474  0.2-  0.1-    191002 104  0.1+  0.3-    191003 H21  0.4+  0.2-
    191002 474  0.0   0.7-    191002 J95  0.2+  0.3-    191003 H21  0.2+  0.4-
    191002 474  0.2+  0.5-    191002 Z80  0.5+  0.6-    191003 H21  0.1+  0.1-
    191002 474  0.4-  0.1-    191002 104  0.0   0.3-    191003 H21  0.2-  0.1-
    191002 474  0.4-  0.5+    191002 J95  0.2+  0.3-    191003 W34  0.6-  0.4+
    191002 K63  0.5-  0.4+    191002 Z80  0.3+  0.7-    191003 H21  0.2-  0.2-
    191002 K63  0.7-  0.7+    191002 J95  0.1-  0.0     191003 W34  0.3-  0.2+
    191002 K63  0.7-  0.9+    191002 J95  0.3+  0.4-    191003 I52  0.2+  0.5-
    191002 K63  0.9-  0.9+    191002 Z80  0.2+  0.5-    191003 I52  0.2+  0.5-
    191002 K63  0.3+  0.4-    191002 Z80  0.1+  0.2-    191003 I52  0.2-  0.3-
    191002 C95  0.0   0.1-    191002 Z80  0.4-  0.1-    191003 I52  0.3+  0.4-
    191002 160  0.2-  0.0     191002 L01  0.1-  0.1+    191003 850  0.5-  0.9+
    191002 160  0.4-  0.7+    191002 L01  0.1+  0.3+    191003 850  0.4-  0.2+
    191002 160  0.5+  0.3+    191002 L01  0.0   0.1+    191003 850  0.0   0.2-
    191002 160  0.2-  1.3+    191002 L01  0.2-  0.3+    191003 850  0.0   0.5+
    191002 160  0.3+  0.8+    191002 L01  0.4-  0.0     191003 850  0.3-  0.1+
    191002 C95  0.5+  0.7+    191002 L01  0.1+  0.2-
    
    Ephemeris:
    2019 TQ                  a,e,i = 1.73, 0.49, 36                  q = 0.8868
    Date    TT    R. A. (2000) Decl.     Delta      r    Elong.  Phase     V
    2019 09 03    02 53 37.7 -45 39 38   0.3788  1.2187   115.1    48.6    24.7
    ...
    2019 09 18    02 47 46.8 -45 18 17   0.1901  1.1135   120.4    51.1    23.1
    ...
    2019 09 26    02 14 48.3 -42 07 46   0.08982 1.0610   128.4    47.8    21.3
    ...
    2019 10 02    23 33 39.4 -08 08 30   0.02427 1.0242   161.8    17.7    17.5
    2019 10 03    22 13 25.6 +16 09 19   0.02176 1.0184   143.3    36.0    17.8
    2019 10 04    20 40 44.0 +36 37 02   0.02606 1.0126   116.9    61.8    18.9
    ...
    2019 10 10    16 49 36.1 +51 11 26   0.09277 0.9799    75.6    99.1    23.0
    ...
    2019 10 18    16 03 27.2 +50 00 48   0.1911  0.9424    68.2   101.0    24.6
    ...
    2019 11 02    15 37 52.8 +47 45 55   0.3683  0.8963    64.3    94.0    25.5
    
    A. U. Tomatic                (C) Copyright 2019 MPC           M.P.E.C. 2019-T63
    


    Read MPEC 2019-T62 Read MPEC 2019-T64


    MPEC number:

    Enter an MPEC number in one of the following forms:

    • 1997-B01 (the full form)
    • J97B01 (the packed version of the full form)
    • B01 (the abbreviated form)